Home   Weather   Prince Rupert   Past weeks

Flag for Canada Past Weather in Prince Rupert, British Columbia, Canada — Yesterday and Last 2 Weeks

Now
41 °F

Light rain. Mostly cloudy.


Feels Like: 37 °F
Forecast: 39 / 51 °F
Wind: 6 mph from Northeast

Location: Prince Rupert

Current Time: Apr 28, 2017 at 7:16:05 am

Latest Report: Apr 28, 2017 at 6:14 am


Visibility: 9 mi

Pressure: 30.33 "Hg

Humidity: 93%

Dew Point: 39 °F

Location of Prince RupertLocation

Past Weather in Prince Rupert — Graph

°F

Prince Rupert Temperature Yesterday

Maximum temperature yesterday: 50 °F (at 2:00 pm)
Minimum temperature yesterday: 41 °F (at 12:31 am)
Average temperature yesterday: 44 °F

High & Low Weather Summary for the Past Weeks

 TemperatureHumidityPressure
High66 °F (Apr 22, 3:00 pm)100% (Apr 14, 6:00 am)30.33 "Hg (Apr 14, 6:00 am)
Low36 °F (Apr 17, 6:00 am)32% (Apr 22, 3:00 pm)29.44 "Hg (Apr 26, 5:02 am)
Average47 °F83%29.89 "Hg
* Reported Apr 13 6:00 am — Apr 28 6:00 am, Prince Rupert, Weather by CustomWeather, © 2017

Note: Actual official high and low records may vary slightly from our data, if they occured in-between our weather recording intervals... More about our weather records

Advertising

Prince Rupert Weather History for the Previous 24 Hours

Scroll right to see more
 ConditionsComfort  
Time TempWeatherWind HumidityBarometerVisibility
6:00 am
Fri, Apr 28
41 °FPassing clouds.5 mph93%30.32 "Hg9 mi
5:15 am41 °FOvercast.6 mph93%30.32 "Hg9 mi
5:00 am41 °FLight rain. Fog.6 mph93%30.32 "Hg6 mi
4:55 am41 °FLight rain. Fog.6 mph93%30.32 "Hg4 mi
4:37 am41 °FLight rain. Fog.3 mph93%30.32 "Hg6 mi
4:00 am41 °FLight rain. Overcast.7 mph100%30.31 "Hg9 mi
3:47 am43 °FLight rain. Overcast.5 mph93%30.31 "Hg9 mi
3:31 am43 °FLight rain. Mostly cloudy.6 mph93%30.31 "Hg9 mi
3:00 am43 °FOvercast.5 mph93%30.31 "Hg9 mi
2:09 am43 °FOvercast.5 mph87%30.29 "Hg9 mi
1:00 am43 °FLight rain. Overcast.7 mph87%30.28 "Hg9 mi
12:42 am43 °FLight rain. Overcast.8 mph93%30.27 "Hg9 mi
12:11 am43 °FLight rain. Overcast.5 mph93%30.27 "Hg9 mi
12:00 am43 °FLight rain. Mostly cloudy.6 mph93%30.26 "Hg9 mi
11:05 pm
Thu, Apr 27
45 °FOvercast.6 mph87%30.25 "Hg9 mi
10:21 pm45 °FLight rain. Mostly cloudy.5 mph81%30.24 "Hg9 mi
10:04 pm45 °FLight rain. Overcast.3 mph81%30.24 "Hg9 mi
9:00 pm45 °FPassing clouds.3 mph81%30.22 "Hg9 mi
8:00 pm46 °FBroken clouds.5 mph76%30.19 "Hg9 mi
7:00 pm46 °FOvercast.5 mph76%30.18 "Hg9 mi
6:00 pm48 °FPartly sunny.3 mph76%30.16 "Hg9 mi
5:00 pm50 °FPartly sunny.7 mph71%30.15 "Hg9 mi
4:00 pm48 °FOvercast.3 mph76%30.14 "Hg9 mi
3:00 pm50 °FSunny.6 mph71%30.12 "Hg9 mi
2:00 pm50 °FSunny.8 mph71%30.10 "Hg9 mi
1:00 pm48 °FPassing clouds.9 mph71%30.08 "Hg9 mi
12:00 pm46 °FPartly sunny.9 mph82%30.06 "Hg9 mi
11:15 am45 °FMostly cloudy.5 mph87%30.05 "Hg9 mi
10:51 am45 °FLight rain. Fog.5 mph87%30.04 "Hg5 mi
10:42 am45 °FLight rain. Overcast.7 mph87%30.03 "Hg9 mi
10:00 am45 °FMore clouds than sun.7 mph87%30.02 "Hg9 mi
9:00 am45 °FOvercast.7 mph87%30.01 "Hg9 mi
8:00 am43 °FBroken clouds.7 mph93%29.99 "Hg9 mi
7:08 am41 °FMore clouds than sun.3 mph93%29.97 "Hg9 mi
Weather by CustomWeather, © 2017

See weather overviewHow to use our weather pages